[[{"header":{"parameterUnit":"m.s-1","parameterCategory":1,"la1":30.2991,"la2":30.254,"lo1":-89.0895,"lo2":-89.0444,"dy":0.0017,"dx":0.0017,"nx":28,"ny":28,"refTime":"2025-03-20T09:00:00:Z","depth":0,"parameterNumber":2,"parameterNumberName":"U-component_of_WINDS"},"data":[0,0,0,0,0,0,0,0,0,0,0,0,0,0,0,0,0,0,0,0,0,0,0,0,0,0,0,0,0,0,0,0,0,0,0,0,0,0,0,0,0,0,0,0,0,0,0,0,0,0,0,0,0,0,0,0,0,0,3.9033,3.9033,0,3.9056,3.9056,3.9057,3.8991,3.8989,3.8987,3.8985,3.9007,3.901,3.9012,0,0,0,0,0,0,0,0,0,0,0,0,0,3.893,3.8932,3.9032,3.9033,3.9033,3.9056,3.9056,3.9057,3.8991,3.8989,3.8986,3.8984,3.9006,3.9009,3.9012,0,0,0,0,0,0,0,0,0,0,0,0,0,3.8966,3.8933,3.9032,3.9003,3.9001,3.9056,3.9056,3.9057,3.8992,3.8989,3.8986,3.8983,3.9005,3.9009,3.9013,3.9097,0,0,3.9024,3.9026,0,0,0,0,0,0,0,0,3.8964,3.897,3.9007,3.9005,3.9003,3.9017,3.9028,3.907,3.8992,3.8995,3.8985,3.8981,3.9013,3.9016,3.9027,3.9098,3.9099,3.9024,3.9027,3.9028,3.9029,0,0,0,0,0,0,0,3.8962,3.8969,3.9042,3.9008,3.9005,3.8989,3.8991,3.9036,3.9021,3.8995,3.899,3.8994,3.9011,3.9023,3.9027,3.9099,3.9024,3.9028,3.903,3.9031,3.9241,3.9244,0,0,0,0,0,0,3.8963,3.8967,3.9041,3.9042,3.8976,3.8993,3.8995,3.9016,3.902,3.9018,3.8996,3.8991,3.9019,3.9023,3.9027,3.9127,3.9028,3.9032,3.9034,3.9238,3.9242,3.9246,0,0,0,0,0,0,3.8961,3.8971,3.904,3.9004,3.9011,3.8998,3.9022,3.9018,3.903,3.9021,3.9018,3.9012,3.9016,3.9022,3.908,3.9126,3.9033,3.9037,3.9234,3.9239,3.9244,3.9325,0,0,0,0,0,0,3.8959,3.897,3.9002,3.9005,3.9013,3.9093,3.9025,3.902,3.9037,3.903,3.9035,3.9033,3.9014,3.9075,3.9084,3.913,3.904,3.923,3.9236,3.9242,3.9318,3.9333,3.9345,0,0,0,0,0,3.8955,3.9023,3.9004,3.9013,3.9053,3.9096,3.91,3.9078,3.9041,3.9073,3.9067,3.9033,3.912,3.9082,3.9091,3.9139,3.9227,3.9234,3.9242,3.9313,3.933,3.9344,0,0,0,0,0,0,3.9025,3.9023,3.9001,3.9072,3.9085,3.9084,3.9124,3.9097,3.912,3.9112,3.9083,3.9085,3.9148,3.9149,3.9106,3.9221,3.9167,3.9177,3.9218,3.9234,3.9247,3.9245,3.9043,0,0,0,0,0,3.9049,3.9084,3.908,3.9143,3.9151,3.9137,3.9154,3.9136,3.9148,3.9152,3.9151,3.9163,3.9194,3.9214,3.9241,3.9319,3.9319,3.9356,3.937,3.938,3.9389,3.9431,3.9447,3.927,3.927,3.927,0,0,3.9098,3.9101,3.9125,3.9157,3.9165,3.9202,3.9141,3.9183,3.921,3.9158,3.9213,3.9214,3.9225,3.9294,3.9324,3.9297,3.9438,3.939,3.9399,3.9401,3.944,3.9457,3.9472,3.9275,3.9274,3.9274,0,0,3.9206,3.9212,3.9266,3.9275,3.9288,3.9278,3.9292,3.9296,3.9294,3.9349,3.9312,3.9344,3.9396,3.9407,3.9419,3.9534,3.9503,3.9544,3.9611,3.9653,3.9667,3.9679,3.972,3.9735,3.9552,3.9553,3.9553,0,3.9265,3.932,3.9296,3.9341,3.9357,3.9314,3.9368,3.9378,3.9399,3.9411,3.938,3.9446,3.9451,3.9522,3.9551,3.9562,3.9576,3.9542,3.9667,3.9679,3.969,3.9729,3.9745,3.9557,3.9557,3.9556,3.9556,0,3.9392,3.9431,3.9473,3.9495,3.9516,3.9565,3.9549,3.9573,3.9554,3.9548,3.9605,3.961,3.9638,3.9654,3.9635,3.9723,3.9706,3.9672,3.9617,3.9712,3.9748,3.9763,3.9564,3.9563,3.9561,3.956,0,0,3.9542,3.9554,3.9569,3.9579,3.9592,3.9621,3.9669,3.9698,3.9719,3.9735,3.9774,3.9821,3.9791,3.9805,3.9787,3.9824,3.9915,3.9785,3.9785,3.9809,4.0013,4.0038,4.0055,3.9896,3.9898,3.99,4.0012,0,3.9649,3.9732,3.9714,3.9795,3.9831,3.9792,3.9833,3.9846,3.9842,3.9872,3.9867,3.9901,3.9858,3.9866,3.9901,3.9897,3.9956,3.9889,3.9932,3.9933,3.9929,4.0074,4.01,4.0205,4.0026,4.0028,4.003,0,3.9784,3.9808,3.9893,3.9901,3.9915,3.9953,3.9979,4.0008,4.0021,4.0016,4.0033,4.0009,4.0057,4.0003,4.0068,4.0023,4.004,4.0041,4.0045,4.0047,3.9987,4.008,4.0237,4.0253,4.0052,4.005,4.0048,0,3.9886,3.9938,3.9996,4.0007,4.0017,4.0045,4.0051,4.0061,4.008,4.0102,4.0115,4.0142,4.0157,4.0179,4.0163,4.0125,4.0232,4.0176,4.0229,4.0229,4.0252,4.025,4.0414,4.0264,4.0264,4.0263,4.0263,0,4.0007,4.006,4.0042,4.0078,4.0138,4.0116,4.0176,4.0177,4.0187,4.0222,4.019,4.0224,4.0201,4.0234,4.0222,4.0278,4.0285,4.0282,4.0278,4.0285,4.0285,4.0294,4.0287,4.0268,4.0267,4.0266,4.0265,0,4.0129,4.0119,4.018,4.0186,4.0189,4.0233,4.0238,4.0271,4.0266,4.0311,4.032,4.0312,4.0348,4.0335,4.0374,4.0366,4.0438,4.0425,4.0434,4.043,4.0483,4.0479,4.0658,4.068,4.0517,4.0518,4.052,0,4.0206,4.0247,4.0258,4.028,4.0288,4.0324,4.0344,4.0325,4.0347,4.0366,4.0398,4.0431,4.0457,4.0517,4.0514,4.0544,4.0531,4.0592,4.0535,4.0541,4.0532,4.0529,4.0534,4.0603,4.0605,4.0606,4.0608,0,4.0345,4.0339,4.0368,4.0398,4.0422,4.0444,4.0463,4.0482,4.0465,4.0491,4.0529,4.0549,4.0589,4.0623,4.0651,4.0656,4.063,4.0626,4.064,4.0646,4.065,4.0649,4.0464,4.0622,4.062,4.0619,4.0618,4.0618,4.0447,4.0482,4.0495,4.053,4.0543,4.0562,4.0594,4.0594,4.0625,4.0656,4.0644,4.0687,4.0701,4.0735,4.0744,4.0778,4.0754,4.0774,4.0779,4.0784,4.0791,4.0646,4.0783,4.0782,4.0782,4.0782,4.0781,0,4.0583,4.0591,4.0623,4.0652,4.0679,4.0653,4.0673,4.0698,4.0737,4.0752,4.0779,4.0823,4.0856,4.0857,4.0889,4.0915,4.0904,4.0924,4.0922,4.0923,4.081,4.0795,4.0933,4.0933,4.0933,4.0933,4.0933,4.0933,4.0658,4.0716,4.0711,4.0776,4.0782,4.0825,4.0839,4.0857,4.0869,4.092,4.0948,4.0949,4.0958,4.0991,4.102,4.102,4.1033,4.1058,4.1052,4.0946,4.0931,4.0917,4.0903,4.1061,4.1061,4.1163,4.1164,4.1164]},{"header":{"parameterUnit":"m.s-1","parameterCategory":1,"la1":30.2991,"la2":30.254,"lo1":-89.0895,"lo2":-89.0444,"dy":0.0017,"dx":0.0017,"nx":28,"ny":28,"refTime":"2025-03-20T09:00:00:Z","depth":0,"parameterNumber":3,"parameterNumberName":"V-component_of_WINDS"},"data":[0,0,0,0,0,0,0,0,0,0,0,0,0,0,0,0,0,0,0,0,0,0,0,0,0,0,0,0,0,0,0,0,0,0,0,0,0,0,0,0,0,0,0,0,0,0,0,0,0,0,0,0,0,0,0,0,0,0,-6.5348,-6.5349,0,-6.551,-6.5512,-6.5514,-6.5473,-6.547,-6.5467,-6.5464,-6.5627,-6.5634,-6.5641,0,0,0,0,0,0,0,0,0,0,0,0,0,-6.4999,-6.5006,-6.5347,-6.5349,-6.5351,-6.551,-6.5512,-6.5514,-6.5474,-6.547,-6.5466,-6.5462,-6.5625,-6.5633,-6.5642,0,0,0,0,0,0,0,0,0,0,0,0,0,-6.5155,-6.5008,-6.5347,-6.535,-6.5352,-6.5509,-6.5512,-6.5515,-6.5474,-6.547,-6.5465,-6.5461,-6.5622,-6.5632,-6.5643,-6.5806,0,0,-6.5677,-6.5681,0,0,0,0,0,0,0,0,-6.5146,-6.5168,-6.5348,-6.535,-6.5353,-6.5467,-6.5449,-6.5612,-6.5476,-6.5428,-6.5464,-6.5458,-6.5577,-6.5592,-6.5632,-6.5814,-6.5821,-6.5678,-6.5684,-6.5689,-6.5692,0,0,0,0,0,0,0,-6.5135,-6.516,-6.5412,-6.535,-6.5354,-6.5343,-6.536,-6.548,-6.5527,-6.5432,-6.5429,-6.5449,-6.5578,-6.5622,-6.5636,-6.5823,-6.5677,-6.5687,-6.5694,-6.5698,-6.6147,-6.6152,0,0,0,0,0,0,-6.5123,-6.5152,-6.5406,-6.5416,-6.5236,-6.5353,-6.5372,-6.5435,-6.5526,-6.5535,-6.5453,-6.5447,-6.5606,-6.5623,-6.5641,-6.5838,-6.5689,-6.5699,-6.5705,-6.6141,-6.6148,-6.6154,0,0,0,0,0,0,-6.5115,-6.5146,-6.54,-6.5284,-6.5315,-6.5364,-6.5435,-6.5441,-6.5485,-6.5542,-6.555,-6.549,-6.5603,-6.5626,-6.5766,-6.5843,-6.5704,-6.5714,-6.6135,-6.6143,-6.6151,-6.6233,0,0,0,0,0,0,-6.5106,-6.5144,-6.5206,-6.5285,-6.5321,-6.5523,-6.544,-6.5447,-6.5504,-6.5497,-6.5579,-6.5587,-6.5601,-6.575,-6.5777,-6.5856,-6.5723,-6.6128,-6.6139,-6.6148,-6.6224,-6.6243,-6.626,0,0,0,0,0,-6.5093,-6.5222,-6.521,-6.5241,-6.5401,-6.5527,-6.5548,-6.5561,-6.5511,-6.5574,-6.5611,-6.5585,-6.5831,-6.5764,-6.5794,-6.5878,-6.6123,-6.6136,-6.6147,-6.6216,-6.624,-6.6259,0,0,0,0,0,0,-6.515,-6.5233,-6.522,-6.5378,-6.5446,-6.552,-6.56,-6.5586,-6.5668,-6.5658,-6.5671,-6.5689,-6.5832,-6.5869,-6.5793,-6.6041,-6.597,-6.5988,-6.6011,-6.6034,-6.6052,-6.604,-6.5732,0,0,0,0,0,-6.5181,-6.5277,-6.5344,-6.5477,-6.5512,-6.5551,-6.5606,-6.5611,-6.5681,-6.5709,-6.5756,-6.5824,-6.5917,-6.5978,-6.6066,-6.6229,-6.6246,-6.6302,-6.632,-6.6334,-6.635,-6.6439,-6.6465,-6.6193,-6.6193,-6.6193,0,0,-6.5246,-6.5303,-6.5363,-6.549,-6.5543,-6.5642,-6.5575,-6.5682,-6.5755,-6.5725,-6.586,-6.5897,-6.5974,-6.6127,-6.6196,-6.6162,-6.6429,-6.635,-6.6361,-6.6369,-6.6454,-6.648,-6.6503,-6.6201,-6.62,-6.6198,0,0,-6.5414,-6.5467,-6.5585,-6.564,-6.5722,-6.5747,-6.5775,-6.5852,-6.5876,-6.6012,-6.5992,-6.6078,-6.6238,-6.6294,-6.6343,-6.6535,-6.6514,-6.6563,-6.6656,-6.6743,-6.6765,-6.6784,-6.6852,-6.6876,-6.6578,-6.6579,-6.6579,0,-6.5484,-6.5633,-6.5646,-6.5756,-6.5813,-6.5792,-6.591,-6.5963,-6.6069,-6.6108,-6.6069,-6.6269,-6.632,-6.6485,-6.6532,-6.6573,-6.6605,-6.6553,-6.6761,-6.678,-6.6798,-6.6863,-6.6889,-6.6584,-6.6584,-6.6583,-6.6582,0,-6.5715,-6.5818,-6.5903,-6.6008,-6.6074,-6.6187,-6.6218,-6.6283,-6.6283,-6.6311,-6.645,-6.6511,-6.6611,-6.6651,-6.6651,-6.6817,-6.6793,-6.6757,-6.6686,-6.6829,-6.6891,-6.6916,-6.6592,-6.659,-6.6588,-6.6587,0,0,-6.5922,-6.6034,-6.6065,-6.6112,-6.6202,-6.6282,-6.6394,-6.6494,-6.655,-6.6624,-6.6719,-6.6855,-6.6823,-6.6879,-6.6885,-6.6962,-6.711,-6.6917,-6.6919,-6.695,-6.7297,-6.7323,-6.7352,-6.7097,-6.7102,-6.7106,-6.729,0,-6.6098,-6.6298,-6.6314,-6.6493,-6.6589,-6.6571,-6.6669,-6.6734,-6.6765,-6.685,-6.6883,-6.6979,-6.693,-6.6964,-6.7039,-6.7076,-6.7179,-6.7063,-6.7184,-6.7188,-6.7165,-6.7384,-6.7412,-6.7583,-6.7314,-6.7318,-6.7321,0,-6.633,-6.6413,-6.6602,-6.6679,-6.672,-6.6808,-6.6901,-6.6983,-6.7057,-6.7074,-6.7137,-6.7133,-6.7249,-6.7174,-6.7332,-6.7253,-6.7304,-6.733,-6.7337,-6.7348,-6.7263,-6.7401,-6.7638,-6.7663,-6.7359,-6.7356,-6.7354,0,-6.6462,-6.6621,-6.6755,-6.6796,-6.689,-6.6952,-6.6994,-6.7063,-6.7122,-6.7203,-6.7242,-6.7335,-6.7386,-6.7458,-6.7479,-6.7423,-6.7637,-6.7564,-6.7654,-6.7654,-6.7699,-6.7696,-6.7947,-6.7733,-6.7732,-6.7732,-6.7731,0,-6.6657,-6.6774,-6.6816,-6.6898,-6.7028,-6.7046,-6.7174,-6.7211,-6.7273,-6.7362,-6.7352,-6.7436,-6.7459,-6.7547,-6.7564,-6.7693,-6.7716,-6.7732,-6.7735,-6.7733,-6.7731,-6.7766,-6.7754,-6.7739,-6.7737,-6.7736,-6.7735,0,-6.6826,-6.686,-6.7004,-6.7082,-6.7104,-6.7196,-6.7262,-6.7341,-6.737,-6.7483,-6.751,-6.7556,-6.7659,-6.7687,-6.781,-6.7822,-6.7973,-6.7966,-6.7949,-6.7949,-6.8037,-6.8028,-6.8319,-6.8358,-6.8118,-6.8121,-6.8123,0,-6.6948,-6.7038,-6.7125,-6.7185,-6.7229,-6.7325,-6.7386,-6.7407,-6.7471,-6.7562,-6.763,-6.7732,-6.7814,-6.7979,-6.8023,-6.8117,-6.8111,-6.8207,-6.8125,-6.812,-6.8113,-6.8107,-6.8116,-6.8222,-6.8224,-6.8226,-6.8228,0,-6.7161,-6.7174,-6.7262,-6.7358,-6.7431,-6.7507,-6.7579,-6.7629,-6.766,-6.7732,-6.7838,-6.7902,-6.8028,-6.8129,-6.8225,-6.8266,-6.8253,-6.8254,-6.828,-6.8278,-6.8265,-6.8273,-6.7991,-6.8247,-6.8245,-6.8244,-6.8243,-6.8242,-6.7311,-6.739,-6.7464,-6.7563,-6.762,-6.7689,-6.7767,-6.7807,-6.7896,-6.8002,-6.8008,-6.8123,-6.8195,-6.8322,-6.8369,-6.8459,-6.843,-6.8468,-6.8477,-6.8486,-6.8493,-6.8251,-6.8476,-6.8476,-6.8475,-6.8475,-6.8475,0,-6.7523,-6.757,-6.7662,-6.7764,-6.7843,-6.7825,-6.7904,-6.7971,-6.8073,-6.8141,-6.8223,-6.8345,-6.8444,-6.8496,-6.8594,-6.8655,-6.8652,-6.868,-6.8676,-6.8685,-6.8513,-6.8481,-6.8682,-6.8682,-6.8682,-6.8682,-6.8681,-6.8681,-6.7643,-6.7776,-6.7797,-6.7958,-6.8004,-6.8118,-6.8165,-6.8228,-6.8283,-6.842,-6.8502,-6.8536,-6.8598,-6.8701,-6.879,-6.8803,-6.8839,-6.8871,-6.8881,-6.8719,-6.8697,-6.8677,-6.8647,-6.8879,-6.888,-6.9046,-6.9047,-6.9048]}]]